Index of /20260428/WXO-DD/model_gdps/15km/00/210
Name Last modified Size Description
Parent Directory -
20260428T00Z_MSC_GDPS_AbsoluteVorticity_IsbL-0200_LatLon0.15_PT210H.grib2 2026-04-28 04:41 1.2M
20260428T00Z_MSC_GDPS_AbsoluteVorticity_IsbL-0250_LatLon0.15_PT210H.grib2 2026-04-28 04:41 1.3M
20260428T00Z_MSC_GDPS_AbsoluteVorticity_IsbL-0500_LatLon0.15_PT210H.grib2 2026-04-28 04:41 1.2M
20260428T00Z_MSC_GDPS_AbsoluteVorticity_IsbL-0700_LatLon0.15_PT210H.grib2 2026-04-28 04:41 1.3M
20260428T00Z_MSC_GDPS_AbsoluteVorticity_IsbL-0850_LatLon0.15_PT210H.grib2 2026-04-28 04:41 1.6M
20260428T00Z_MSC_GDPS_AirTemp-Max_AGL-2m_LatLon0.15_PT210H.grib2 2026-04-28 04:41 747K
20260428T00Z_MSC_GDPS_AirTemp-Min_AGL-2m_LatLon0.15_PT210H.grib2 2026-04-28 04:41 791K
20260428T00Z_MSC_GDPS_AirTemp_AGL-120m_LatLon0.15_PT210H.grib2 2026-04-28 04:41 791K
20260428T00Z_MSC_GDPS_AirTemp_AGL-2m_LatLon0.15_PT210H.grib2 2026-04-28 04:41 1.0M
20260428T00Z_MSC_GDPS_AirTemp_AGL-40m_LatLon0.15_PT210H.grib2 2026-04-28 04:41 811K
20260428T00Z_MSC_GDPS_AirTemp_AGL-80m_LatLon0.15_PT210H.grib2 2026-04-28 04:41 799K
20260428T00Z_MSC_GDPS_AirTemp_IsbL-0001_LatLon0.15_PT210H.grib2 2026-04-28 04:41 724K
20260428T00Z_MSC_GDPS_AirTemp_IsbL-0005_LatLon0.15_PT210H.grib2 2026-04-28 04:41 693K
20260428T00Z_MSC_GDPS_AirTemp_IsbL-0010_LatLon0.15_PT210H.grib2 2026-04-28 04:41 764K
20260428T00Z_MSC_GDPS_AirTemp_IsbL-0020_LatLon0.15_PT210H.grib2 2026-04-28 04:41 791K
20260428T00Z_MSC_GDPS_AirTemp_IsbL-0030_LatLon0.15_PT210H.grib2 2026-04-28 04:41 842K
20260428T00Z_MSC_GDPS_AirTemp_IsbL-0050_LatLon0.15_PT210H.grib2 2026-04-28 04:41 804K
20260428T00Z_MSC_GDPS_AirTemp_IsbL-0100_LatLon0.15_PT210H.grib2 2026-04-28 04:41 966K
20260428T00Z_MSC_GDPS_AirTemp_IsbL-0150_LatLon0.15_PT210H.grib2 2026-04-28 04:41 970K
20260428T00Z_MSC_GDPS_AirTemp_IsbL-0175_LatLon0.15_PT210H.grib2 2026-04-28 04:41 961K
20260428T00Z_MSC_GDPS_AirTemp_IsbL-0200_LatLon0.15_PT210H.grib2 2026-04-28 04:41 1.0M
20260428T00Z_MSC_GDPS_AirTemp_IsbL-0225_LatLon0.15_PT210H.grib2 2026-04-28 04:41 1.0M
20260428T00Z_MSC_GDPS_AirTemp_IsbL-0250_LatLon0.15_PT210H.grib2 2026-04-28 04:41 1.0M
20260428T00Z_MSC_GDPS_AirTemp_IsbL-0275_LatLon0.15_PT210H.grib2 2026-04-28 04:41 1.0M
20260428T00Z_MSC_GDPS_AirTemp_IsbL-0300_LatLon0.15_PT210H.grib2 2026-04-28 04:41 949K
20260428T00Z_MSC_GDPS_AirTemp_IsbL-0350_LatLon0.15_PT210H.grib2 2026-04-28 04:41 934K
20260428T00Z_MSC_GDPS_AirTemp_IsbL-0400_LatLon0.15_PT210H.grib2 2026-04-28 04:41 734K
20260428T00Z_MSC_GDPS_AirTemp_IsbL-0450_LatLon0.15_PT210H.grib2 2026-04-28 04:41 754K
20260428T00Z_MSC_GDPS_AirTemp_IsbL-0500_LatLon0.15_PT210H.grib2 2026-04-28 04:41 777K
20260428T00Z_MSC_GDPS_AirTemp_IsbL-0550_LatLon0.15_PT210H.grib2 2026-04-28 04:41 810K
20260428T00Z_MSC_GDPS_AirTemp_IsbL-0600_LatLon0.15_PT210H.grib2 2026-04-28 04:41 900K
20260428T00Z_MSC_GDPS_AirTemp_IsbL-0650_LatLon0.15_PT210H.grib2 2026-04-28 04:41 925K
20260428T00Z_MSC_GDPS_AirTemp_IsbL-0700_LatLon0.15_PT210H.grib2 2026-04-28 04:41 959K
20260428T00Z_MSC_GDPS_AirTemp_IsbL-0750_LatLon0.15_PT210H.grib2 2026-04-28 04:41 1.0M
20260428T00Z_MSC_GDPS_AirTemp_IsbL-0800_LatLon0.15_PT210H.grib2 2026-04-28 04:41 1.1M
20260428T00Z_MSC_GDPS_AirTemp_IsbL-0850_LatLon0.15_PT210H.grib2 2026-04-28 04:41 1.1M
20260428T00Z_MSC_GDPS_AirTemp_IsbL-0875_LatLon0.15_PT210H.grib2 2026-04-28 04:41 1.2M
20260428T00Z_MSC_GDPS_AirTemp_IsbL-0900_LatLon0.15_PT210H.grib2 2026-04-28 04:41 1.2M
20260428T00Z_MSC_GDPS_AirTemp_IsbL-0925_LatLon0.15_PT210H.grib2 2026-04-28 04:41 1.1M
20260428T00Z_MSC_GDPS_AirTemp_IsbL-0950_LatLon0.15_PT210H.grib2 2026-04-28 04:41 1.1M
20260428T00Z_MSC_GDPS_AirTemp_IsbL-0970_LatLon0.15_PT210H.grib2 2026-04-28 04:41 1.1M
20260428T00Z_MSC_GDPS_AirTemp_IsbL-0985_LatLon0.15_PT210H.grib2 2026-04-28 04:41 1.1M
20260428T00Z_MSC_GDPS_AirTemp_IsbL-1000_LatLon0.15_PT210H.grib2 2026-04-28 04:41 1.1M
20260428T00Z_MSC_GDPS_AirTemp_IsbL-1015_LatLon0.15_PT210H.grib2 2026-04-28 04:41 1.1M
20260428T00Z_MSC_GDPS_Albedo_Sfc_LatLon0.15_PT210H.grib2 2026-04-28 04:41 246K
20260428T00Z_MSC_GDPS_CAPE_Sfc_LatLon0.15_PT210H.grib2 2026-04-28 04:41 4.0M
20260428T00Z_MSC_GDPS_CIN_Sfc_LatLon0.15_PT210H.grib2 2026-04-28 04:41 2.8M
20260428T00Z_MSC_GDPS_CloudWater_EAtm_LatLon0.15_PT210H.grib2 2026-04-28 04:41 536K
20260428T00Z_MSC_GDPS_ConvectivePrecip-Accum_Sfc_LatLon0.15_PT210H.grib2 2026-04-28 04:41 4.0M
20260428T00Z_MSC_GDPS_DewPointDepression_AGL-2m_LatLon0.15_PT210H.grib2 2026-04-28 04:41 765K
20260428T00Z_MSC_GDPS_DewPointDepression_IsbL-0010_LatLon0.15_PT210H.grib2 2026-04-28 04:41 65K
20260428T00Z_MSC_GDPS_DewPointDepression_IsbL-0020_LatLon0.15_PT210H.grib2 2026-04-28 04:41 66K
20260428T00Z_MSC_GDPS_DewPointDepression_IsbL-0030_LatLon0.15_PT210H.grib2 2026-04-28 04:41 90K
20260428T00Z_MSC_GDPS_DewPointDepression_IsbL-0050_LatLon0.15_PT210H.grib2 2026-04-28 04:41 375K
20260428T00Z_MSC_GDPS_DewPointDepression_IsbL-0100_LatLon0.15_PT210H.grib2 2026-04-28 04:41 394K
20260428T00Z_MSC_GDPS_DewPointDepression_IsbL-0150_LatLon0.15_PT210H.grib2 2026-04-28 04:41 489K
20260428T00Z_MSC_GDPS_DewPointDepression_IsbL-0175_LatLon0.15_PT210H.grib2 2026-04-28 04:41 585K
20260428T00Z_MSC_GDPS_DewPointDepression_IsbL-0200_LatLon0.15_PT210H.grib2 2026-04-28 04:41 694K
20260428T00Z_MSC_GDPS_DewPointDepression_IsbL-0225_LatLon0.15_PT210H.grib2 2026-04-28 04:41 780K
20260428T00Z_MSC_GDPS_DewPointDepression_IsbL-0250_LatLon0.15_PT210H.grib2 2026-04-28 04:41 865K
20260428T00Z_MSC_GDPS_DewPointDepression_IsbL-0275_LatLon0.15_PT210H.grib2 2026-04-28 04:41 882K
20260428T00Z_MSC_GDPS_DewPointDepression_IsbL-0300_LatLon0.15_PT210H.grib2 2026-04-28 04:41 927K
20260428T00Z_MSC_GDPS_DewPointDepression_IsbL-0350_LatLon0.15_PT210H.grib2 2026-04-28 04:41 961K
20260428T00Z_MSC_GDPS_DewPointDepression_IsbL-0400_LatLon0.15_PT210H.grib2 2026-04-28 04:41 1.0M
20260428T00Z_MSC_GDPS_DewPointDepression_IsbL-0450_LatLon0.15_PT210H.grib2 2026-04-28 04:41 1.0M
20260428T00Z_MSC_GDPS_DewPointDepression_IsbL-0500_LatLon0.15_PT210H.grib2 2026-04-28 04:41 1.0M
20260428T00Z_MSC_GDPS_DewPointDepression_IsbL-0550_LatLon0.15_PT210H.grib2 2026-04-28 04:41 1.0M
20260428T00Z_MSC_GDPS_DewPointDepression_IsbL-0600_LatLon0.15_PT210H.grib2 2026-04-28 04:41 1.1M
20260428T00Z_MSC_GDPS_DewPointDepression_IsbL-0650_LatLon0.15_PT210H.grib2 2026-04-28 04:41 1.1M
20260428T00Z_MSC_GDPS_DewPointDepression_IsbL-0700_LatLon0.15_PT210H.grib2 2026-04-28 04:41 1.1M
20260428T00Z_MSC_GDPS_DewPointDepression_IsbL-0750_LatLon0.15_PT210H.grib2 2026-04-28 04:41 1.1M
20260428T00Z_MSC_GDPS_DewPointDepression_IsbL-0800_LatLon0.15_PT210H.grib2 2026-04-28 04:41 1.2M
20260428T00Z_MSC_GDPS_DewPointDepression_IsbL-0850_LatLon0.15_PT210H.grib2 2026-04-28 04:41 1.2M
20260428T00Z_MSC_GDPS_DewPointDepression_IsbL-0875_LatLon0.15_PT210H.grib2 2026-04-28 04:41 1.1M
20260428T00Z_MSC_GDPS_DewPointDepression_IsbL-0900_LatLon0.15_PT210H.grib2 2026-04-28 04:41 1.1M
20260428T00Z_MSC_GDPS_DewPointDepression_IsbL-0925_LatLon0.15_PT210H.grib2 2026-04-28 04:41 1.0M
20260428T00Z_MSC_GDPS_DewPointDepression_IsbL-0950_LatLon0.15_PT210H.grib2 2026-04-28 04:41 1.0M
20260428T00Z_MSC_GDPS_DewPointDepression_IsbL-0970_LatLon0.15_PT210H.grib2 2026-04-28 04:41 1.0M
20260428T00Z_MSC_GDPS_DewPointDepression_IsbL-0985_LatLon0.15_PT210H.grib2 2026-04-28 04:41 1.0M
20260428T00Z_MSC_GDPS_DewPointDepression_IsbL-1000_LatLon0.15_PT210H.grib2 2026-04-28 04:41 1.0M
20260428T00Z_MSC_GDPS_DewPointDepression_IsbL-1015_LatLon0.15_PT210H.grib2 2026-04-28 04:41 919K
20260428T00Z_MSC_GDPS_DewPoint_AGL-2m_LatLon0.15_PT210H.grib2 2026-04-28 04:41 609K
20260428T00Z_MSC_GDPS_DownwardLongwaveRadiationFlux-Accum_Sfc_LatLon0.15_PT210H.grib2 2026-04-28 04:41 718K
20260428T00Z_MSC_GDPS_DownwardShortwaveRadiationFlux-Accum_NTAtm_LatLon0.15_PT210H.grib2 2026-04-28 04:41 252K
20260428T00Z_MSC_GDPS_DownwardShortwaveRadiationFlux-Accum_Sfc_LatLon0.15_PT210H.grib2 2026-04-28 04:41 895K
20260428T00Z_MSC_GDPS_FreezingRain-Accum12h_Sfc_LatLon0.15_PT210H.grib2 2026-04-28 04:41 116K
20260428T00Z_MSC_GDPS_FreezingRain-Accum24h_Sfc_LatLon0.15_PT210H.grib2 2026-04-28 04:41 162K
20260428T00Z_MSC_GDPS_FreezingRain-Accum6h_Sfc_LatLon0.15_PT210H.grib2 2026-04-28 04:41 79K
20260428T00Z_MSC_GDPS_FreezingRain-Accum_Sfc_LatLon0.15_PT210H.grib2 2026-04-28 04:41 498K
20260428T00Z_MSC_GDPS_GeopotentialHeight_IsbL-0001_LatLon0.15_PT210H.grib2 2026-04-28 04:41 432K
20260428T00Z_MSC_GDPS_GeopotentialHeight_IsbL-0005_LatLon0.15_PT210H.grib2 2026-04-28 04:41 492K
20260428T00Z_MSC_GDPS_GeopotentialHeight_IsbL-0010_LatLon0.15_PT210H.grib2 2026-04-28 04:41 481K
20260428T00Z_MSC_GDPS_GeopotentialHeight_IsbL-0020_LatLon0.15_PT210H.grib2 2026-04-28 04:41 415K
20260428T00Z_MSC_GDPS_GeopotentialHeight_IsbL-0030_LatLon0.15_PT210H.grib2 2026-04-28 04:41 416K
20260428T00Z_MSC_GDPS_GeopotentialHeight_IsbL-0050_LatLon0.15_PT210H.grib2 2026-04-28 04:41 569K
20260428T00Z_MSC_GDPS_GeopotentialHeight_IsbL-0100_LatLon0.15_PT210H.grib2 2026-04-28 04:41 610K
20260428T00Z_MSC_GDPS_GeopotentialHeight_IsbL-0150_LatLon0.15_PT210H.grib2 2026-04-28 04:41 636K
20260428T00Z_MSC_GDPS_GeopotentialHeight_IsbL-0175_LatLon0.15_PT210H.grib2 2026-04-28 04:41 639K
20260428T00Z_MSC_GDPS_GeopotentialHeight_IsbL-0200_LatLon0.15_PT210H.grib2 2026-04-28 04:41 645K
20260428T00Z_MSC_GDPS_GeopotentialHeight_IsbL-0225_LatLon0.15_PT210H.grib2 2026-04-28 04:41 644K
20260428T00Z_MSC_GDPS_GeopotentialHeight_IsbL-0250_LatLon0.15_PT210H.grib2 2026-04-28 04:41 653K
20260428T00Z_MSC_GDPS_GeopotentialHeight_IsbL-0275_LatLon0.15_PT210H.grib2 2026-04-28 04:41 653K
20260428T00Z_MSC_GDPS_GeopotentialHeight_IsbL-0300_LatLon0.15_PT210H.grib2 2026-04-28 04:41 645K
20260428T00Z_MSC_GDPS_GeopotentialHeight_IsbL-0350_LatLon0.15_PT210H.grib2 2026-04-28 04:41 640K
20260428T00Z_MSC_GDPS_GeopotentialHeight_IsbL-0400_LatLon0.15_PT210H.grib2 2026-04-28 04:41 632K
20260428T00Z_MSC_GDPS_GeopotentialHeight_IsbL-0450_LatLon0.15_PT210H.grib2 2026-04-28 04:41 553K
20260428T00Z_MSC_GDPS_GeopotentialHeight_IsbL-0500_LatLon0.15_PT210H.grib2 2026-04-28 04:41 540K
20260428T00Z_MSC_GDPS_GeopotentialHeight_IsbL-0550_LatLon0.15_PT210H.grib2 2026-04-28 04:41 533K
20260428T00Z_MSC_GDPS_GeopotentialHeight_IsbL-0600_LatLon0.15_PT210H.grib2 2026-04-28 04:41 697K
20260428T00Z_MSC_GDPS_GeopotentialHeight_IsbL-0650_LatLon0.15_PT210H.grib2 2026-04-28 04:41 695K
20260428T00Z_MSC_GDPS_GeopotentialHeight_IsbL-0700_LatLon0.15_PT210H.grib2 2026-04-28 04:41 696K
20260428T00Z_MSC_GDPS_GeopotentialHeight_IsbL-0750_LatLon0.15_PT210H.grib2 2026-04-28 04:41 700K
20260428T00Z_MSC_GDPS_GeopotentialHeight_IsbL-0800_LatLon0.15_PT210H.grib2 2026-04-28 04:41 709K
20260428T00Z_MSC_GDPS_GeopotentialHeight_IsbL-0850_LatLon0.15_PT210H.grib2 2026-04-28 04:41 721K
20260428T00Z_MSC_GDPS_GeopotentialHeight_IsbL-0875_LatLon0.15_PT210H.grib2 2026-04-28 04:41 726K
20260428T00Z_MSC_GDPS_GeopotentialHeight_IsbL-0900_LatLon0.15_PT210H.grib2 2026-04-28 04:41 729K
20260428T00Z_MSC_GDPS_GeopotentialHeight_IsbL-0925_LatLon0.15_PT210H.grib2 2026-04-28 04:41 738K
20260428T00Z_MSC_GDPS_GeopotentialHeight_IsbL-0950_LatLon0.15_PT210H.grib2 2026-04-28 04:41 743K
20260428T00Z_MSC_GDPS_GeopotentialHeight_IsbL-0970_LatLon0.15_PT210H.grib2 2026-04-28 04:41 756K
20260428T00Z_MSC_GDPS_GeopotentialHeight_IsbL-0985_LatLon0.15_PT210H.grib2 2026-04-28 04:41 769K
20260428T00Z_MSC_GDPS_GeopotentialHeight_IsbL-1000_LatLon0.15_PT210H.grib2 2026-04-28 04:41 791K
20260428T00Z_MSC_GDPS_GeopotentialHeight_IsbL-1015_LatLon0.15_PT210H.grib2 2026-04-28 04:41 813K
20260428T00Z_MSC_GDPS_Humidex_Sfc_LatLon0.15_PT210H.grib2 2026-04-28 04:41 5.3M
20260428T00Z_MSC_GDPS_IcePellets-Accum12h_Sfc_LatLon0.15_PT210H.grib2 2026-04-28 04:41 14K
20260428T00Z_MSC_GDPS_IcePellets-Accum24h_Sfc_LatLon0.15_PT210H.grib2 2026-04-28 04:41 25K
20260428T00Z_MSC_GDPS_IcePellets-Accum6h_Sfc_LatLon0.15_PT210H.grib2 2026-04-28 04:41 8.8K
20260428T00Z_MSC_GDPS_IcePellets-Accum_Sfc_LatLon0.15_PT210H.grib2 2026-04-28 04:41 161K
20260428T00Z_MSC_GDPS_KIndex_Sfc_LatLon0.15_PT210H.grib2 2026-04-28 04:41 6.5M
20260428T00Z_MSC_GDPS_LatentHeatNetFlux_Sfc_LatLon0.15_PT210H.grib2 2026-04-28 04:41 693K
20260428T00Z_MSC_GDPS_LiftedIndex-MU-VT_IsbL-0500_LatLon0.15_PT210H.grib2 2026-04-28 04:41 5.4M
20260428T00Z_MSC_GDPS_NetLongwaveRadiationFlux-Accum_Sfc_LatLon0.15_PT210H.grib2 2026-04-28 04:41 907K
20260428T00Z_MSC_GDPS_NetShortwaveRadiationFlux-Accum_Sfc_LatLon0.15_PT210H.grib2 2026-04-28 04:41 872K
20260428T00Z_MSC_GDPS_O3MixingRatio_LatLon0.15_PT210H.grib2 2026-04-28 04:55 2.2M
20260428T00Z_MSC_GDPS_O3_EAtm_LatLon0.15_PT210H.grib2 2026-04-28 04:55 2.4M
20260428T00Z_MSC_GDPS_PlanetaryBoundaryLayerHeight_Sfc_LatLon0.15_PT210H.grib2 2026-04-28 04:41 2.4M
20260428T00Z_MSC_GDPS_Precip-Accum12h_Sfc_LatLon0.15_PT210H.grib2 2026-04-28 04:41 4.0M
20260428T00Z_MSC_GDPS_Precip-Accum24h_Sfc_LatLon0.15_PT210H.grib2 2026-04-28 04:41 4.6M
20260428T00Z_MSC_GDPS_Precip-Accum6h_Sfc_LatLon0.15_PT210H.grib2 2026-04-28 04:41 3.8M
20260428T00Z_MSC_GDPS_Precip-Accum_Sfc_LatLon0.15_PT210H.grib2 2026-04-28 04:41 5.4M
20260428T00Z_MSC_GDPS_PrecipRate_Sfc_LatLon0.15_PT210H.grib2 2026-04-28 04:41 2.7M
20260428T00Z_MSC_GDPS_PrecipType-Instant_Sfc_LatLon0.15_PT210H.grib2 2026-04-28 04:41 1.5M
20260428T00Z_MSC_GDPS_Pressure_MSL_LatLon0.15_PT210H.grib2 2026-04-28 04:41 830K
20260428T00Z_MSC_GDPS_Pressure_PVU-1.5_LatLon0.15_PT210H.grib2 2026-04-28 04:41 5.8M
20260428T00Z_MSC_GDPS_Pressure_PVU-1_LatLon0.15_PT210H.grib2 2026-04-28 04:41 6.0M
20260428T00Z_MSC_GDPS_Pressure_PVU-2_LatLon0.15_PT210H.grib2 2026-04-28 04:41 5.6M
20260428T00Z_MSC_GDPS_Pressure_Sfc_LatLon0.15_PT210H.grib2 2026-04-28 04:41 1.1M
20260428T00Z_MSC_GDPS_RadiativeTemp_Sfc_LatLon0.15_PT210H.grib2 2026-04-28 04:41 496K
20260428T00Z_MSC_GDPS_Rain-Accum12h_Sfc_LatLon0.15_PT210H.grib2 2026-04-28 04:41 2.8M
20260428T00Z_MSC_GDPS_Rain-Accum24h_Sfc_LatLon0.15_PT210H.grib2 2026-04-28 04:41 3.2M
20260428T00Z_MSC_GDPS_Rain-Accum6h_Sfc_LatLon0.15_PT210H.grib2 2026-04-28 04:41 2.5M
20260428T00Z_MSC_GDPS_Rain-Accum_Sfc_LatLon0.15_PT210H.grib2 2026-04-28 04:41 4.3M
20260428T00Z_MSC_GDPS_RelativeHumidity_AGL-2m_LatLon0.15_PT210H.grib2 2026-04-28 04:41 1.0M
20260428T00Z_MSC_GDPS_RelativeHumidity_IsbL-0010_LatLon0.15_PT210H.grib2 2026-04-28 04:41 188K
20260428T00Z_MSC_GDPS_RelativeHumidity_IsbL-0020_LatLon0.15_PT210H.grib2 2026-04-28 04:41 153K
20260428T00Z_MSC_GDPS_RelativeHumidity_IsbL-0030_LatLon0.15_PT210H.grib2 2026-04-28 04:41 259K
20260428T00Z_MSC_GDPS_RelativeHumidity_IsbL-0050_LatLon0.15_PT210H.grib2 2026-04-28 04:41 329K
20260428T00Z_MSC_GDPS_RelativeHumidity_IsbL-0100_LatLon0.15_PT210H.grib2 2026-04-28 04:41 495K
20260428T00Z_MSC_GDPS_RelativeHumidity_IsbL-0150_LatLon0.15_PT210H.grib2 2026-04-28 04:41 665K
20260428T00Z_MSC_GDPS_RelativeHumidity_IsbL-0175_LatLon0.15_PT210H.grib2 2026-04-28 04:41 803K
20260428T00Z_MSC_GDPS_RelativeHumidity_IsbL-0200_LatLon0.15_PT210H.grib2 2026-04-28 04:41 720K
20260428T00Z_MSC_GDPS_RelativeHumidity_IsbL-0225_LatLon0.15_PT210H.grib2 2026-04-28 04:41 802K
20260428T00Z_MSC_GDPS_RelativeHumidity_IsbL-0250_LatLon0.15_PT210H.grib2 2026-04-28 04:41 875K
20260428T00Z_MSC_GDPS_RelativeHumidity_IsbL-0275_LatLon0.15_PT210H.grib2 2026-04-28 04:41 896K
20260428T00Z_MSC_GDPS_RelativeHumidity_IsbL-0300_LatLon0.15_PT210H.grib2 2026-04-28 04:41 940K
20260428T00Z_MSC_GDPS_RelativeHumidity_IsbL-0350_LatLon0.15_PT210H.grib2 2026-04-28 04:41 960K
20260428T00Z_MSC_GDPS_RelativeHumidity_IsbL-0400_LatLon0.15_PT210H.grib2 2026-04-28 04:41 1.0M
20260428T00Z_MSC_GDPS_RelativeHumidity_IsbL-0450_LatLon0.15_PT210H.grib2 2026-04-28 04:41 1.0M
20260428T00Z_MSC_GDPS_RelativeHumidity_IsbL-0500_LatLon0.15_PT210H.grib2 2026-04-28 04:41 1.0M
20260428T00Z_MSC_GDPS_RelativeHumidity_IsbL-0550_LatLon0.15_PT210H.grib2 2026-04-28 04:41 1.0M
20260428T00Z_MSC_GDPS_RelativeHumidity_IsbL-0600_LatLon0.15_PT210H.grib2 2026-04-28 04:41 1.0M
20260428T00Z_MSC_GDPS_RelativeHumidity_IsbL-0650_LatLon0.15_PT210H.grib2 2026-04-28 04:41 1.1M
20260428T00Z_MSC_GDPS_RelativeHumidity_IsbL-0700_LatLon0.15_PT210H.grib2 2026-04-28 04:41 1.1M
20260428T00Z_MSC_GDPS_RelativeHumidity_IsbL-0750_LatLon0.15_PT210H.grib2 2026-04-28 04:41 1.1M
20260428T00Z_MSC_GDPS_RelativeHumidity_IsbL-0800_LatLon0.15_PT210H.grib2 2026-04-28 04:41 1.2M
20260428T00Z_MSC_GDPS_RelativeHumidity_IsbL-0850_LatLon0.15_PT210H.grib2 2026-04-28 04:41 1.3M
20260428T00Z_MSC_GDPS_RelativeHumidity_IsbL-0875_LatLon0.15_PT210H.grib2 2026-04-28 04:41 1.3M
20260428T00Z_MSC_GDPS_RelativeHumidity_IsbL-0900_LatLon0.15_PT210H.grib2 2026-04-28 04:41 1.2M
20260428T00Z_MSC_GDPS_RelativeHumidity_IsbL-0925_LatLon0.15_PT210H.grib2 2026-04-28 04:41 1.2M
20260428T00Z_MSC_GDPS_RelativeHumidity_IsbL-0950_LatLon0.15_PT210H.grib2 2026-04-28 04:41 1.2M
20260428T00Z_MSC_GDPS_RelativeHumidity_IsbL-0970_LatLon0.15_PT210H.grib2 2026-04-28 04:41 1.2M
20260428T00Z_MSC_GDPS_RelativeHumidity_IsbL-0985_LatLon0.15_PT210H.grib2 2026-04-28 04:41 1.1M
20260428T00Z_MSC_GDPS_RelativeHumidity_IsbL-1000_LatLon0.15_PT210H.grib2 2026-04-28 04:41 1.1M
20260428T00Z_MSC_GDPS_RelativeHumidity_IsbL-1015_LatLon0.15_PT210H.grib2 2026-04-28 04:41 1.0M
20260428T00Z_MSC_GDPS_RelativeVorticity_IsbL-0200_LatLon0.15_PT210H.grib2 2026-04-28 04:41 1.2M
20260428T00Z_MSC_GDPS_RelativeVorticity_IsbL-0250_LatLon0.15_PT210H.grib2 2026-04-28 04:41 1.3M
20260428T00Z_MSC_GDPS_RelativeVorticity_IsbL-0500_LatLon0.15_PT210H.grib2 2026-04-28 04:41 1.5M
20260428T00Z_MSC_GDPS_RelativeVorticity_IsbL-0700_LatLon0.15_PT210H.grib2 2026-04-28 04:41 1.3M
20260428T00Z_MSC_GDPS_RelativeVorticity_IsbL-0850_LatLon0.15_PT210H.grib2 2026-04-28 04:41 1.6M
20260428T00Z_MSC_GDPS_Runoff-Accum_Sfc_LatLon0.15_PT210H.grib2 2026-04-28 04:41 133K
20260428T00Z_MSC_GDPS_SensibleHeatNetFlux_Sfc_LatLon0.15_PT210H.grib2 2026-04-28 04:41 467K
20260428T00Z_MSC_GDPS_ShowalterIndex_IsbL-0500_LatLon0.15_PT210H.grib2 2026-04-28 04:41 6.2M
20260428T00Z_MSC_GDPS_Snow-Accum12h_Sfc_LatLon0.15_PT210H.grib2 2026-04-28 04:41 1.4M
20260428T00Z_MSC_GDPS_Snow-Accum24h_Sfc_LatLon0.15_PT210H.grib2 2026-04-28 04:41 1.6M
20260428T00Z_MSC_GDPS_Snow-Accum6h_Sfc_LatLon0.15_PT210H.grib2 2026-04-28 04:41 1.3M
20260428T00Z_MSC_GDPS_Snow-Accum_Sfc_LatLon0.15_PT210H.grib2 2026-04-28 04:41 2.1M
20260428T00Z_MSC_GDPS_SnowDensity_Sfc_LatLon0.15_PT210H.grib2 2026-04-28 04:41 260K
20260428T00Z_MSC_GDPS_SnowDepth_Sfc_LatLon0.15_PT210H.grib2 2026-04-28 04:41 1.7M
20260428T00Z_MSC_GDPS_SoilTemp_DBS-0to10cm_LatLon0.15_PT210H.grib2 2026-04-28 04:41 515K
20260428T00Z_MSC_GDPS_SoilTemp_Sfc_LatLon0.15_PT210H.grib2 2026-04-28 04:41 581K
20260428T00Z_MSC_GDPS_SoilVolumetricIceContent_Sfc_LatLon0.15_PT210H.grib2 2026-04-28 04:41 188K
20260428T00Z_MSC_GDPS_SoilVolumetricWaterContent_DBS-0to10cm_LatLon0.15_PT210H.grib2 2026-04-28 04:41 593K
20260428T00Z_MSC_GDPS_SoilVolumetricWaterContent_DBS-0to1cm_LatLon0.15_PT210H.grib2 2026-04-28 04:41 645K
20260428T00Z_MSC_GDPS_SpecificHumidity_AGL-120m_LatLon0.15_PT210H.grib2 2026-04-28 04:41 1.1M
20260428T00Z_MSC_GDPS_SpecificHumidity_AGL-2m_LatLon0.15_PT210H.grib2 2026-04-28 04:41 1.2M
20260428T00Z_MSC_GDPS_SpecificHumidity_AGL-40m_LatLon0.15_PT210H.grib2 2026-04-28 04:41 1.1M
20260428T00Z_MSC_GDPS_SpecificHumidity_AGL-80m_LatLon0.15_PT210H.grib2 2026-04-28 04:41 1.1M
20260428T00Z_MSC_GDPS_SpecificHumidity_IsbL-0001_LatLon0.15_PT210H.grib2 2026-04-28 04:41 1.1M
20260428T00Z_MSC_GDPS_SpecificHumidity_IsbL-0005_LatLon0.15_PT210H.grib2 2026-04-28 04:41 1.0M
20260428T00Z_MSC_GDPS_SpecificHumidity_IsbL-0010_LatLon0.15_PT210H.grib2 2026-04-28 04:41 1.2M
20260428T00Z_MSC_GDPS_SpecificHumidity_IsbL-0020_LatLon0.15_PT210H.grib2 2026-04-28 04:41 1.2M
20260428T00Z_MSC_GDPS_SpecificHumidity_IsbL-0030_LatLon0.15_PT210H.grib2 2026-04-28 04:41 1.4M
20260428T00Z_MSC_GDPS_SpecificHumidity_IsbL-0050_LatLon0.15_PT210H.grib2 2026-04-28 04:41 1.4M
20260428T00Z_MSC_GDPS_SpecificHumidity_IsbL-0100_LatLon0.15_PT210H.grib2 2026-04-28 04:41 1.2M
20260428T00Z_MSC_GDPS_SpecificHumidity_IsbL-0150_LatLon0.15_PT210H.grib2 2026-04-28 04:41 1.3M
20260428T00Z_MSC_GDPS_SpecificHumidity_IsbL-0175_LatLon0.15_PT210H.grib2 2026-04-28 04:41 1.2M
20260428T00Z_MSC_GDPS_SpecificHumidity_IsbL-0200_LatLon0.15_PT210H.grib2 2026-04-28 04:41 1.3M
20260428T00Z_MSC_GDPS_SpecificHumidity_IsbL-0225_LatLon0.15_PT210H.grib2 2026-04-28 04:41 1.3M
20260428T00Z_MSC_GDPS_SpecificHumidity_IsbL-0250_LatLon0.15_PT210H.grib2 2026-04-28 04:41 1.2M
20260428T00Z_MSC_GDPS_SpecificHumidity_IsbL-0275_LatLon0.15_PT210H.grib2 2026-04-28 04:41 1.3M
20260428T00Z_MSC_GDPS_SpecificHumidity_IsbL-0300_LatLon0.15_PT210H.grib2 2026-04-28 04:41 1.2M
20260428T00Z_MSC_GDPS_SpecificHumidity_IsbL-0350_LatLon0.15_PT210H.grib2 2026-04-28 04:41 1.2M
20260428T00Z_MSC_GDPS_SpecificHumidity_IsbL-0400_LatLon0.15_PT210H.grib2 2026-04-28 04:41 1.5M
20260428T00Z_MSC_GDPS_SpecificHumidity_IsbL-0450_LatLon0.15_PT210H.grib2 2026-04-28 04:41 1.3M
20260428T00Z_MSC_GDPS_SpecificHumidity_IsbL-0500_LatLon0.15_PT210H.grib2 2026-04-28 04:41 1.4M
20260428T00Z_MSC_GDPS_SpecificHumidity_IsbL-0550_LatLon0.15_PT210H.grib2 2026-04-28 04:41 1.6M
20260428T00Z_MSC_GDPS_SpecificHumidity_IsbL-0600_LatLon0.15_PT210H.grib2 2026-04-28 04:41 1.4M
20260428T00Z_MSC_GDPS_SpecificHumidity_IsbL-0650_LatLon0.15_PT210H.grib2 2026-04-28 04:41 1.5M
20260428T00Z_MSC_GDPS_SpecificHumidity_IsbL-0700_LatLon0.15_PT210H.grib2 2026-04-28 04:41 1.6M
20260428T00Z_MSC_GDPS_SpecificHumidity_IsbL-0750_LatLon0.15_PT210H.grib2 2026-04-28 04:41 1.7M
20260428T00Z_MSC_GDPS_SpecificHumidity_IsbL-0800_LatLon0.15_PT210H.grib2 2026-04-28 04:41 1.8M
20260428T00Z_MSC_GDPS_SpecificHumidity_IsbL-0850_LatLon0.15_PT210H.grib2 2026-04-28 04:41 1.9M
20260428T00Z_MSC_GDPS_SpecificHumidity_IsbL-0875_LatLon0.15_PT210H.grib2 2026-04-28 04:41 1.9M
20260428T00Z_MSC_GDPS_SpecificHumidity_IsbL-0900_LatLon0.15_PT210H.grib2 2026-04-28 04:41 1.9M
20260428T00Z_MSC_GDPS_SpecificHumidity_IsbL-0925_LatLon0.15_PT210H.grib2 2026-04-28 04:41 1.6M
20260428T00Z_MSC_GDPS_SpecificHumidity_IsbL-0950_LatLon0.15_PT210H.grib2 2026-04-28 04:41 1.6M
20260428T00Z_MSC_GDPS_SpecificHumidity_IsbL-0970_LatLon0.15_PT210H.grib2 2026-04-28 04:41 1.5M
20260428T00Z_MSC_GDPS_SpecificHumidity_IsbL-0985_LatLon0.15_PT210H.grib2 2026-04-28 04:41 1.5M
20260428T00Z_MSC_GDPS_SpecificHumidity_IsbL-1000_LatLon0.15_PT210H.grib2 2026-04-28 04:41 1.5M
20260428T00Z_MSC_GDPS_SpecificHumidity_IsbL-1015_LatLon0.15_PT210H.grib2 2026-04-28 04:41 1.5M
20260428T00Z_MSC_GDPS_SpecificHumidity_Sfc_LatLon0.15_PT210H.grib2 2026-04-28 04:41 672K
20260428T00Z_MSC_GDPS_Thickness_IsbL-0850to0700_LatLon0.15_PT210H.grib2 2026-04-28 04:41 473K
20260428T00Z_MSC_GDPS_Thickness_IsbL-1000to0500_LatLon0.15_PT210H.grib2 2026-04-28 04:41 377K
20260428T00Z_MSC_GDPS_Thickness_IsbL-1000to0850_LatLon0.15_PT210H.grib2 2026-04-28 04:41 490K
20260428T00Z_MSC_GDPS_TotalCloudCover_Sfc_LatLon0.15_PT210H.grib2 2026-04-28 04:41 827K
20260428T00Z_MSC_GDPS_TotalTotalsIndex_Sfc_LatLon0.15_PT210H.grib2 2026-04-28 04:41 6.2M
20260428T00Z_MSC_GDPS_UVIndex-ClearSky-Max24h_Sfc_LatLon0.15_PT210H.grib2 2026-04-28 04:55 2.2M
20260428T00Z_MSC_GDPS_UVIndex-ClearSky_Sfc_LatLon0.15_PT210H.grib2 2026-04-28 04:55 1.0M
20260428T00Z_MSC_GDPS_UVIndex-Max24h_Sfc_LatLon0.15_PT210H.grib2 2026-04-28 04:55 3.2M
20260428T00Z_MSC_GDPS_UVIndex_Sfc_LatLon0.15_PT210H.grib2 2026-04-28 04:55 1.5M
20260428T00Z_MSC_GDPS_UpwardLongwaveRadiationFlux_NTAtm_LatLon0.15_PT210H.grib2 2026-04-28 04:41 844K
20260428T00Z_MSC_GDPS_VerticalVelocity_IsbL-0200_LatLon0.15_PT210H.grib2 2026-04-28 04:41 934K
20260428T00Z_MSC_GDPS_VerticalVelocity_IsbL-0250_LatLon0.15_PT210H.grib2 2026-04-28 04:41 852K
20260428T00Z_MSC_GDPS_VerticalVelocity_IsbL-0500_LatLon0.15_PT210H.grib2 2026-04-28 04:41 1.0M
20260428T00Z_MSC_GDPS_VerticalVelocity_IsbL-0600_LatLon0.15_PT210H.grib2 2026-04-28 04:41 1.1M
20260428T00Z_MSC_GDPS_VerticalVelocity_IsbL-0700_LatLon0.15_PT210H.grib2 2026-04-28 04:41 1.4M
20260428T00Z_MSC_GDPS_VerticalVelocity_IsbL-0850_LatLon0.15_PT210H.grib2 2026-04-28 04:41 1.3M
20260428T00Z_MSC_GDPS_WindChill_Sfc_LatLon0.15_PT210H.grib2 2026-04-28 04:41 5.3M
20260428T00Z_MSC_GDPS_WindDir_AGL-10m_LatLon0.15_PT210H.grib2 2026-04-28 04:41 1.3M
20260428T00Z_MSC_GDPS_WindDir_AGL-120m_LatLon0.15_PT210H.grib2 2026-04-28 04:41 1.3M
20260428T00Z_MSC_GDPS_WindDir_AGL-40m_LatLon0.15_PT210H.grib2 2026-04-28 04:41 1.4M
20260428T00Z_MSC_GDPS_WindDir_AGL-80m_LatLon0.15_PT210H.grib2 2026-04-28 04:41 1.4M
20260428T00Z_MSC_GDPS_WindDir_IsbL-0001_LatLon0.15_PT210H.grib2 2026-04-28 04:41 670K
20260428T00Z_MSC_GDPS_WindDir_IsbL-0005_LatLon0.15_PT210H.grib2 2026-04-28 04:41 816K
20260428T00Z_MSC_GDPS_WindDir_IsbL-0010_LatLon0.15_PT210H.grib2 2026-04-28 04:41 840K
20260428T00Z_MSC_GDPS_WindDir_IsbL-0020_LatLon0.15_PT210H.grib2 2026-04-28 04:41 957K
20260428T00Z_MSC_GDPS_WindDir_IsbL-0030_LatLon0.15_PT210H.grib2 2026-04-28 04:41 946K
20260428T00Z_MSC_GDPS_WindDir_IsbL-0050_LatLon0.15_PT210H.grib2 2026-04-28 04:41 945K
20260428T00Z_MSC_GDPS_WindDir_IsbL-0100_LatLon0.15_PT210H.grib2 2026-04-28 04:41 1.0M
20260428T00Z_MSC_GDPS_WindDir_IsbL-0150_LatLon0.15_PT210H.grib2 2026-04-28 04:41 1.0M
20260428T00Z_MSC_GDPS_WindDir_IsbL-0175_LatLon0.15_PT210H.grib2 2026-04-28 04:41 1.1M
20260428T00Z_MSC_GDPS_WindDir_IsbL-0200_LatLon0.15_PT210H.grib2 2026-04-28 04:41 1.1M
20260428T00Z_MSC_GDPS_WindDir_IsbL-0225_LatLon0.15_PT210H.grib2 2026-04-28 04:41 1.1M
20260428T00Z_MSC_GDPS_WindDir_IsbL-0250_LatLon0.15_PT210H.grib2 2026-04-28 04:41 1.1M
20260428T00Z_MSC_GDPS_WindDir_IsbL-0275_LatLon0.15_PT210H.grib2 2026-04-28 04:41 1.2M
20260428T00Z_MSC_GDPS_WindDir_IsbL-0300_LatLon0.15_PT210H.grib2 2026-04-28 04:41 1.2M
20260428T00Z_MSC_GDPS_WindDir_IsbL-0350_LatLon0.15_PT210H.grib2 2026-04-28 04:41 1.3M
20260428T00Z_MSC_GDPS_WindDir_IsbL-0400_LatLon0.15_PT210H.grib2 2026-04-28 04:41 1.3M
20260428T00Z_MSC_GDPS_WindDir_IsbL-0450_LatLon0.15_PT210H.grib2 2026-04-28 04:41 1.3M
20260428T00Z_MSC_GDPS_WindDir_IsbL-0500_LatLon0.15_PT210H.grib2 2026-04-28 04:41 1.4M
20260428T00Z_MSC_GDPS_WindDir_IsbL-0550_LatLon0.15_PT210H.grib2 2026-04-28 04:41 1.4M
20260428T00Z_MSC_GDPS_WindDir_IsbL-0600_LatLon0.15_PT210H.grib2 2026-04-28 04:41 1.5M
20260428T00Z_MSC_GDPS_WindDir_IsbL-0650_LatLon0.15_PT210H.grib2 2026-04-28 04:41 1.5M
20260428T00Z_MSC_GDPS_WindDir_IsbL-0700_LatLon0.15_PT210H.grib2 2026-04-28 04:41 1.6M
20260428T00Z_MSC_GDPS_WindDir_IsbL-0750_LatLon0.15_PT210H.grib2 2026-04-28 04:41 1.7M
20260428T00Z_MSC_GDPS_WindDir_IsbL-0800_LatLon0.15_PT210H.grib2 2026-04-28 04:41 1.8M
20260428T00Z_MSC_GDPS_WindDir_IsbL-0850_LatLon0.15_PT210H.grib2 2026-04-28 04:41 1.9M
20260428T00Z_MSC_GDPS_WindDir_IsbL-0875_LatLon0.15_PT210H.grib2 2026-04-28 04:41 1.9M
20260428T00Z_MSC_GDPS_WindDir_IsbL-0900_LatLon0.15_PT210H.grib2 2026-04-28 04:41 2.0M
20260428T00Z_MSC_GDPS_WindDir_IsbL-0925_LatLon0.15_PT210H.grib2 2026-04-28 04:41 2.0M
20260428T00Z_MSC_GDPS_WindDir_IsbL-0950_LatLon0.15_PT210H.grib2 2026-04-28 04:41 2.0M
20260428T00Z_MSC_GDPS_WindDir_IsbL-0970_LatLon0.15_PT210H.grib2 2026-04-28 04:41 2.0M
20260428T00Z_MSC_GDPS_WindDir_IsbL-0985_LatLon0.15_PT210H.grib2 2026-04-28 04:41 2.0M
20260428T00Z_MSC_GDPS_WindDir_IsbL-1000_LatLon0.15_PT210H.grib2 2026-04-28 04:41 2.0M
20260428T00Z_MSC_GDPS_WindDir_IsbL-1015_LatLon0.15_PT210H.grib2 2026-04-28 04:41 2.0M
20260428T00Z_MSC_GDPS_WindGust-Max_AGL-10m_LatLon0.15_PT210H.grib2 2026-04-28 04:41 2.2M
20260428T00Z_MSC_GDPS_WindGust-Min_AGL-10m_LatLon0.15_PT210H.grib2 2026-04-28 04:41 2.1M
20260428T00Z_MSC_GDPS_WindGust_AGL-10m_LatLon0.15_PT210H.grib2 2026-04-28 04:41 2.1M
20260428T00Z_MSC_GDPS_WindSpeed_AGL-10m_LatLon0.15_PT210H.grib2 2026-04-28 04:41 1.1M
20260428T00Z_MSC_GDPS_WindSpeed_AGL-120m_LatLon0.15_PT210H.grib2 2026-04-28 04:41 1.2M
20260428T00Z_MSC_GDPS_WindSpeed_AGL-40m_LatLon0.15_PT210H.grib2 2026-04-28 04:41 1.2M
20260428T00Z_MSC_GDPS_WindSpeed_AGL-80m_LatLon0.15_PT210H.grib2 2026-04-28 04:41 1.2M
20260428T00Z_MSC_GDPS_WindSpeed_IsbL-0001_LatLon0.15_PT210H.grib2 2026-04-28 04:41 651K
20260428T00Z_MSC_GDPS_WindSpeed_IsbL-0005_LatLon0.15_PT210H.grib2 2026-04-28 04:41 692K
20260428T00Z_MSC_GDPS_WindSpeed_IsbL-0010_LatLon0.15_PT210H.grib2 2026-04-28 04:41 626K
20260428T00Z_MSC_GDPS_WindSpeed_IsbL-0020_LatLon0.15_PT210H.grib2 2026-04-28 04:41 852K
20260428T00Z_MSC_GDPS_WindSpeed_IsbL-0030_LatLon0.15_PT210H.grib2 2026-04-28 04:41 858K
20260428T00Z_MSC_GDPS_WindSpeed_IsbL-0050_LatLon0.15_PT210H.grib2 2026-04-28 04:41 890K
20260428T00Z_MSC_GDPS_WindSpeed_IsbL-0100_LatLon0.15_PT210H.grib2 2026-04-28 04:41 1.1M
20260428T00Z_MSC_GDPS_WindSpeed_IsbL-0150_LatLon0.15_PT210H.grib2 2026-04-28 04:41 942K
20260428T00Z_MSC_GDPS_WindSpeed_IsbL-0175_LatLon0.15_PT210H.grib2 2026-04-28 04:41 1.0M
20260428T00Z_MSC_GDPS_WindSpeed_IsbL-0200_LatLon0.15_PT210H.grib2 2026-04-28 04:41 1.1M
20260428T00Z_MSC_GDPS_WindSpeed_IsbL-0225_LatLon0.15_PT210H.grib2 2026-04-28 04:41 1.1M
20260428T00Z_MSC_GDPS_WindSpeed_IsbL-0250_LatLon0.15_PT210H.grib2 2026-04-28 04:41 1.1M
20260428T00Z_MSC_GDPS_WindSpeed_IsbL-0275_LatLon0.15_PT210H.grib2 2026-04-28 04:41 1.1M
20260428T00Z_MSC_GDPS_WindSpeed_IsbL-0300_LatLon0.15_PT210H.grib2 2026-04-28 04:41 1.1M
20260428T00Z_MSC_GDPS_WindSpeed_IsbL-0350_LatLon0.15_PT210H.grib2 2026-04-28 04:41 1.1M
20260428T00Z_MSC_GDPS_WindSpeed_IsbL-0400_LatLon0.15_PT210H.grib2 2026-04-28 04:41 1.1M
20260428T00Z_MSC_GDPS_WindSpeed_IsbL-0450_LatLon0.15_PT210H.grib2 2026-04-28 04:41 1.1M
20260428T00Z_MSC_GDPS_WindSpeed_IsbL-0500_LatLon0.15_PT210H.grib2 2026-04-28 04:41 1.1M
20260428T00Z_MSC_GDPS_WindSpeed_IsbL-0550_LatLon0.15_PT210H.grib2 2026-04-28 04:41 1.1M
20260428T00Z_MSC_GDPS_WindSpeed_IsbL-0600_LatLon0.15_PT210H.grib2 2026-04-28 04:41 1.4M
20260428T00Z_MSC_GDPS_WindSpeed_IsbL-0650_LatLon0.15_PT210H.grib2 2026-04-28 04:41 1.5M
20260428T00Z_MSC_GDPS_WindSpeed_IsbL-0700_LatLon0.15_PT210H.grib2 2026-04-28 04:41 1.5M
20260428T00Z_MSC_GDPS_WindSpeed_IsbL-0750_LatLon0.15_PT210H.grib2 2026-04-28 04:41 1.6M
20260428T00Z_MSC_GDPS_WindSpeed_IsbL-0800_LatLon0.15_PT210H.grib2 2026-04-28 04:41 1.6M
20260428T00Z_MSC_GDPS_WindSpeed_IsbL-0850_LatLon0.15_PT210H.grib2 2026-04-28 04:41 1.8M
20260428T00Z_MSC_GDPS_WindSpeed_IsbL-0875_LatLon0.15_PT210H.grib2 2026-04-28 04:41 1.8M
20260428T00Z_MSC_GDPS_WindSpeed_IsbL-0900_LatLon0.15_PT210H.grib2 2026-04-28 04:41 1.8M
20260428T00Z_MSC_GDPS_WindSpeed_IsbL-0925_LatLon0.15_PT210H.grib2 2026-04-28 04:41 1.8M
20260428T00Z_MSC_GDPS_WindSpeed_IsbL-0950_LatLon0.15_PT210H.grib2 2026-04-28 04:41 1.9M
20260428T00Z_MSC_GDPS_WindSpeed_IsbL-0970_LatLon0.15_PT210H.grib2 2026-04-28 04:41 1.9M
20260428T00Z_MSC_GDPS_WindSpeed_IsbL-0985_LatLon0.15_PT210H.grib2 2026-04-28 04:41 1.8M
20260428T00Z_MSC_GDPS_WindSpeed_IsbL-1000_LatLon0.15_PT210H.grib2 2026-04-28 04:41 1.8M
20260428T00Z_MSC_GDPS_WindSpeed_IsbL-1015_LatLon0.15_PT210H.grib2 2026-04-28 04:41 1.8M
20260428T00Z_MSC_GDPS_WindU_AGL-10m_LatLon0.15_PT210H.grib2 2026-04-28 04:41 1.3M
20260428T00Z_MSC_GDPS_WindU_AGL-120m_LatLon0.15_PT210H.grib2 2026-04-28 04:41 1.0M
20260428T00Z_MSC_GDPS_WindU_AGL-40m_LatLon0.15_PT210H.grib2 2026-04-28 04:41 969K
20260428T00Z_MSC_GDPS_WindU_AGL-80m_LatLon0.15_PT210H.grib2 2026-04-28 04:41 1.0M
20260428T00Z_MSC_GDPS_WindU_IsbL-0001_LatLon0.15_PT210H.grib2 2026-04-28 04:41 503K
20260428T00Z_MSC_GDPS_WindU_IsbL-0005_LatLon0.15_PT210H.grib2 2026-04-28 04:41 687K
20260428T00Z_MSC_GDPS_WindU_IsbL-0010_LatLon0.15_PT210H.grib2 2026-04-28 04:41 695K
20260428T00Z_MSC_GDPS_WindU_IsbL-0020_LatLon0.15_PT210H.grib2 2026-04-28 04:41 726K
20260428T00Z_MSC_GDPS_WindU_IsbL-0030_LatLon0.15_PT210H.grib2 2026-04-28 04:41 732K
20260428T00Z_MSC_GDPS_WindU_IsbL-0050_LatLon0.15_PT210H.grib2 2026-04-28 04:41 686K
20260428T00Z_MSC_GDPS_WindU_IsbL-0100_LatLon0.15_PT210H.grib2 2026-04-28 04:41 862K
20260428T00Z_MSC_GDPS_WindU_IsbL-0150_LatLon0.15_PT210H.grib2 2026-04-28 04:41 1.0M
20260428T00Z_MSC_GDPS_WindU_IsbL-0175_LatLon0.15_PT210H.grib2 2026-04-28 04:41 1.0M
20260428T00Z_MSC_GDPS_WindU_IsbL-0200_LatLon0.15_PT210H.grib2 2026-04-28 04:41 847K
20260428T00Z_MSC_GDPS_WindU_IsbL-0225_LatLon0.15_PT210H.grib2 2026-04-28 04:41 861K
20260428T00Z_MSC_GDPS_WindU_IsbL-0250_LatLon0.15_PT210H.grib2 2026-04-28 04:41 865K
20260428T00Z_MSC_GDPS_WindU_IsbL-0275_LatLon0.15_PT210H.grib2 2026-04-28 04:41 894K
20260428T00Z_MSC_GDPS_WindU_IsbL-0300_LatLon0.15_PT210H.grib2 2026-04-28 04:41 887K
20260428T00Z_MSC_GDPS_WindU_IsbL-0350_LatLon0.15_PT210H.grib2 2026-04-28 04:41 902K
20260428T00Z_MSC_GDPS_WindU_IsbL-0400_LatLon0.15_PT210H.grib2 2026-04-28 04:41 1.1M
20260428T00Z_MSC_GDPS_WindU_IsbL-0450_LatLon0.15_PT210H.grib2 2026-04-28 04:41 1.1M
20260428T00Z_MSC_GDPS_WindU_IsbL-0500_LatLon0.15_PT210H.grib2 2026-04-28 04:41 1.1M
20260428T00Z_MSC_GDPS_WindU_IsbL-0550_LatLon0.15_PT210H.grib2 2026-04-28 04:41 1.1M
20260428T00Z_MSC_GDPS_WindU_IsbL-0600_LatLon0.15_PT210H.grib2 2026-04-28 04:41 1.2M
20260428T00Z_MSC_GDPS_WindU_IsbL-0650_LatLon0.15_PT210H.grib2 2026-04-28 04:41 1.2M
20260428T00Z_MSC_GDPS_WindU_IsbL-0700_LatLon0.15_PT210H.grib2 2026-04-28 04:41 1.2M
20260428T00Z_MSC_GDPS_WindU_IsbL-0750_LatLon0.15_PT210H.grib2 2026-04-28 04:41 1.3M
20260428T00Z_MSC_GDPS_WindU_IsbL-0800_LatLon0.15_PT210H.grib2 2026-04-28 04:41 1.4M
20260428T00Z_MSC_GDPS_WindU_IsbL-0850_LatLon0.15_PT210H.grib2 2026-04-28 04:41 1.4M
20260428T00Z_MSC_GDPS_WindU_IsbL-0875_LatLon0.15_PT210H.grib2 2026-04-28 04:41 1.5M
20260428T00Z_MSC_GDPS_WindU_IsbL-0900_LatLon0.15_PT210H.grib2 2026-04-28 04:41 1.5M
20260428T00Z_MSC_GDPS_WindU_IsbL-0925_LatLon0.15_PT210H.grib2 2026-04-28 04:41 1.5M
20260428T00Z_MSC_GDPS_WindU_IsbL-0950_LatLon0.15_PT210H.grib2 2026-04-28 04:41 1.4M
20260428T00Z_MSC_GDPS_WindU_IsbL-0970_LatLon0.15_PT210H.grib2 2026-04-28 04:41 1.4M
20260428T00Z_MSC_GDPS_WindU_IsbL-0985_LatLon0.15_PT210H.grib2 2026-04-28 04:41 1.4M
20260428T00Z_MSC_GDPS_WindU_IsbL-1000_LatLon0.15_PT210H.grib2 2026-04-28 04:41 1.4M
20260428T00Z_MSC_GDPS_WindU_IsbL-1015_LatLon0.15_PT210H.grib2 2026-04-28 04:41 1.3M
20260428T00Z_MSC_GDPS_WindV_AGL-10m_LatLon0.15_PT210H.grib2 2026-04-28 04:41 1.6M
20260428T00Z_MSC_GDPS_WindV_AGL-120m_LatLon0.15_PT210H.grib2 2026-04-28 04:41 1.0M
20260428T00Z_MSC_GDPS_WindV_AGL-40m_LatLon0.15_PT210H.grib2 2026-04-28 04:41 967K
20260428T00Z_MSC_GDPS_WindV_AGL-80m_LatLon0.15_PT210H.grib2 2026-04-28 04:41 1.0M
20260428T00Z_MSC_GDPS_WindV_IsbL-0001_LatLon0.15_PT210H.grib2 2026-04-28 04:41 784K
20260428T00Z_MSC_GDPS_WindV_IsbL-0005_LatLon0.15_PT210H.grib2 2026-04-28 04:41 859K
20260428T00Z_MSC_GDPS_WindV_IsbL-0010_LatLon0.15_PT210H.grib2 2026-04-28 04:41 881K
20260428T00Z_MSC_GDPS_WindV_IsbL-0020_LatLon0.15_PT210H.grib2 2026-04-28 04:41 931K
20260428T00Z_MSC_GDPS_WindV_IsbL-0030_LatLon0.15_PT210H.grib2 2026-04-28 04:41 933K
20260428T00Z_MSC_GDPS_WindV_IsbL-0050_LatLon0.15_PT210H.grib2 2026-04-28 04:41 973K
20260428T00Z_MSC_GDPS_WindV_IsbL-0100_LatLon0.15_PT210H.grib2 2026-04-28 04:41 852K
20260428T00Z_MSC_GDPS_WindV_IsbL-0150_LatLon0.15_PT210H.grib2 2026-04-28 04:41 1.0M
20260428T00Z_MSC_GDPS_WindV_IsbL-0175_LatLon0.15_PT210H.grib2 2026-04-28 04:41 1.0M
20260428T00Z_MSC_GDPS_WindV_IsbL-0200_LatLon0.15_PT210H.grib2 2026-04-28 04:41 846K
20260428T00Z_MSC_GDPS_WindV_IsbL-0225_LatLon0.15_PT210H.grib2 2026-04-28 04:41 856K
20260428T00Z_MSC_GDPS_WindV_IsbL-0250_LatLon0.15_PT210H.grib2 2026-04-28 04:41 858K
20260428T00Z_MSC_GDPS_WindV_IsbL-0275_LatLon0.15_PT210H.grib2 2026-04-28 04:41 886K
20260428T00Z_MSC_GDPS_WindV_IsbL-0300_LatLon0.15_PT210H.grib2 2026-04-28 04:41 876K
20260428T00Z_MSC_GDPS_WindV_IsbL-0350_LatLon0.15_PT210H.grib2 2026-04-28 04:41 889K
20260428T00Z_MSC_GDPS_WindV_IsbL-0400_LatLon0.15_PT210H.grib2 2026-04-28 04:41 890K
20260428T00Z_MSC_GDPS_WindV_IsbL-0450_LatLon0.15_PT210H.grib2 2026-04-28 04:41 1.1M
20260428T00Z_MSC_GDPS_WindV_IsbL-0500_LatLon0.15_PT210H.grib2 2026-04-28 04:41 1.1M
20260428T00Z_MSC_GDPS_WindV_IsbL-0550_LatLon0.15_PT210H.grib2 2026-04-28 04:41 1.1M
20260428T00Z_MSC_GDPS_WindV_IsbL-0600_LatLon0.15_PT210H.grib2 2026-04-28 04:41 1.1M
20260428T00Z_MSC_GDPS_WindV_IsbL-0650_LatLon0.15_PT210H.grib2 2026-04-28 04:41 1.2M
20260428T00Z_MSC_GDPS_WindV_IsbL-0700_LatLon0.15_PT210H.grib2 2026-04-28 04:41 1.2M
20260428T00Z_MSC_GDPS_WindV_IsbL-0750_LatLon0.15_PT210H.grib2 2026-04-28 04:41 1.3M
20260428T00Z_MSC_GDPS_WindV_IsbL-0800_LatLon0.15_PT210H.grib2 2026-04-28 04:41 1.3M
20260428T00Z_MSC_GDPS_WindV_IsbL-0850_LatLon0.15_PT210H.grib2 2026-04-28 04:41 1.4M
20260428T00Z_MSC_GDPS_WindV_IsbL-0875_LatLon0.15_PT210H.grib2 2026-04-28 04:41 1.5M
20260428T00Z_MSC_GDPS_WindV_IsbL-0900_LatLon0.15_PT210H.grib2 2026-04-28 04:41 1.5M
20260428T00Z_MSC_GDPS_WindV_IsbL-0925_LatLon0.15_PT210H.grib2 2026-04-28 04:41 1.5M
20260428T00Z_MSC_GDPS_WindV_IsbL-0950_LatLon0.15_PT210H.grib2 2026-04-28 04:41 1.4M
20260428T00Z_MSC_GDPS_WindV_IsbL-0970_LatLon0.15_PT210H.grib2 2026-04-28 04:41 1.4M
20260428T00Z_MSC_GDPS_WindV_IsbL-0985_LatLon0.15_PT210H.grib2 2026-04-28 04:41 1.4M
20260428T00Z_MSC_GDPS_WindV_IsbL-1000_LatLon0.15_PT210H.grib2 2026-04-28 04:41 1.4M
20260428T00Z_MSC_GDPS_WindV_IsbL-1015_LatLon0.15_PT210H.grib2 2026-04-28 04:41 1.6M